GW2984 Weather Reports


time (UTC)temp
C
wind
direction
speed
KPH
gust
KPH
rain 1hr
cm
rain 24hr
cm
rain mn
cm
humidity
%
barometer
mb
20260503200526 16 0.0 0.0 0.00 0.00 0.00 49 1013.4
20260503200037 16 0.0 0.0 0.00 0.00 0.00 51 1013.6
20260503195530 16 0.0 0.0 0.00 0.00 0.00 53 1013.8
20260503195026 15 0.0 0.0 0.00 0.00 0.00 55 1014.0
20260503194546 15 0.0 0.0 0.00 0.00 0.00 53 1014.3
20260503194026 14 0.0 0.0 0.00 0.00 0.00 55 1014.3
20260503193527 14 0.0 0.0 0.00 0.00 0.00 55 1014.3
20260503193055 13 0.0 0.0 0.00 0.00 0.00 55 1014.6
20260503192525 13 0.0 0.0 0.00 0.00 0.00 53 1014.8
20260503192026 13 0.0 0.0 0.00 0.00 0.00 53 1015.2
20260503191543 13 0.0 0.0 0.00 0.00 0.00 52 1015.5
20260503191026 13 0.0 0.0 0.00 0.00 0.00 52 1015.2
20260503190525 13 0.0 0.0 0.00 0.00 0.00 53 1014.9
20260503190046 13 0.0 0.0 0.00 0.00 0.00 55 1015.1
20260503185525 13 0.0 0.0 0.00 0.00 0.00 54 1015.2
20260503185025 13 0.0 0.0 0.00 0.00 0.00 55 1015.0
20260503184539 13 0.0 0.0 0.00 0.00 0.00 55 1015.0
20260503184026 12 0.0 0.0 0.00 0.00 0.00 55 1015.0
20260503183055 12 0.0 0.0 0.00 0.00 0.00 56 1015.2
20260503182526 12 0.0 0.0 0.00 0.00 0.00 56 1015.3
20260503182026 12 0.0 0.0 0.00 0.00 0.00 54 1015.5
20260503181539 12 0.0 0.0 0.00 0.00 0.00 54 1015.6
20260503181027 12 0.0 0.0 0.00 0.00 0.00 55 1016.2
20260503180528 13 0.0 0.0 0.00 0.00 0.00 54 1016.1
20260503180047 13 0.0 0.0 0.00 0.00 0.00 50 1016.1
20260503175526 13 0.0 0.0 0.00 0.00 0.00 51 1016.0
20260503175026 13 0.0 0.0 0.00 0.00 0.00 50 1016.0
20260503174537 13 0.0 0.0 0.00 0.00 0.00 49 1016.1
20260503174026 14 0.0 0.0 0.00 0.00 0.00 50 1016.1
20260503173526 14 0.0 0.0 0.00 0.00 0.00 50 1016.2
20260503173104 14 0.0 0.0 0.00 0.00 0.00 50 1016.3
20260503172525 14 0.0 0.0 0.00 0.00 0.00 50 1016.4
20260503172026 13 0.0 0.0 0.00 0.00 0.00 49 1016.5
20260503171546 13 0.0 0.0 0.00 0.00 0.00 51 1016.5
20260503171027 13 0.0 0.0 0.00 0.00 0.00 51 1016.6
20260503170526 14 0.0 0.0 0.00 0.00 0.00 46 1016.6
20260503150526 12 0.0 0.0 0.00 0.00 0.00 53 1017.9
20260503131025 8 0.0 0.0 0.00 0.00 0.00 60 1018.1
20260503130526 8 0.0 0.0 0.00 0.00 0.00 59 1018.2
20260503110525 5 0.0 0.0 0.00 0.00 0.00 68 1017.8
20260503081543 3 0.0 0.0 0.00 0.00 0.00 73 1017.6
20260503081026 3 0.0 0.0 0.00 0.00 0.00 73 1017.7
20260503080526 3 0.0 0.0 0.00 0.00 0.00 73 1017.6
20260503072526 3 0.0 0.0 0.00 0.00 0.00 74 1017.6
20260503072025 3 0.0 0.0 0.00 0.00 0.00 74 1017.6
20260503071538 3 0.0 0.0 0.00 0.00 0.00 75 1017.6
20260503071026 3 0.0 0.0 0.00 0.00 0.00 75 1017.6
20260503070525 3 0.0 0.0 0.00 0.00 0.00 75 1017.6
20260503055026 3 0.0 0.0 0.00 0.00 0.00 76 1018.1
20260503054540 3 0.0 0.0 0.00 0.00 0.00 76 1018.2
20260503054026 3 0.0 0.0 0.00 0.00 0.00 76 1018.1
20260503053526 3 0.0 0.0 0.00 0.00 0.00 75 1018.3
20260503053037 3 0.0 0.0 0.00 0.00 0.00 76 1018.3
20260503052529 3 0.0 0.0 0.00 0.00 0.00 76 1018.3
20260503052025 3 0.0 0.0 0.00 0.00 0.00 76 1018.3
20260503051537 3 0.0 0.0 0.00 0.00 0.00 77 1018.3
20260503051026 3 0.0 0.0 0.00 0.00 0.00 77 1018.3
20260503050526 3 0.0 0.0 0.00 0.00 0.00 77 1018.4
20260503050037 3 0.0 0.0 0.00 0.00 0.00 78 1018.4
20260503045529 3 0.0 0.0 0.00 0.00 0.00 78 1018.4
20260503045027 3 0.0 0.0 0.00 0.00 0.00 79 1018.3
20260503044536 3 0.0 0.0 0.00 0.00 0.00 79 1018.2
20260503044026 3 0.0 0.0 0.00 0.00 0.00 79 1018.4
20260503043525 3 0.0 0.0 0.00 0.00 0.00 80 1018.4
20260503043035 3 0.0 0.0 0.00 0.00 0.00 79 1018.3
20260503042526 3 0.0 0.0 0.00 0.00 0.00 79 1018.3
20260503042030 3 0.0 0.0 0.00 0.00 0.00 78 1018.3
20260503041536 3 0.0 0.0 0.00 0.00 0.00 78 1018.3
20260503041025 3 0.0 0.0 0.00 0.00 0.00 78 1018.3
20260503040529 3 0.0 0.0 0.00 0.00 0.00 77 1018.3
20260503040037 3 0.0 0.0 0.00 0.00 0.00 77 1018.4
20260503035527 4 0.0 0.0 0.00 0.00 0.00 77 1018.4
20260503035026 4 0.0 0.0 0.00 0.00 0.00 76 1018.4
20260503034536 4 0.0 0.0 0.00 0.00 0.00 76 1018.4
20260503034025 4 0.0 0.0 0.00 0.00 0.00 75 1018.5
20260503033526 4 0.0 0.0 0.00 0.00 0.00 74 1018.4
20260503033042 4 0.0 0.0 0.00 0.00 0.00 73 1018.4
20260503032526 4 0.0 0.0 0.00 0.00 0.00 73 1018.5
20260503032026 4 0.0 0.0 0.00 0.00 0.00 72 1018.5
20260503031535 4 0.0 0.0 0.00 0.00 0.00 72 1018.5
20260503031026 5 0.0 0.0 0.00 0.00 0.00 71 1018.5
20260503030526 5 0.0 0.0 0.00 0.00 0.00 71 1018.5
20260503030039 5 0.0 0.0 0.00 0.00 0.00 70 1018.6
20260503025526 5 0.0 0.0 0.00 0.00 0.00 70 1018.7
20260503025026 5 0.0 0.0 0.00 0.00 0.00 69 1018.6
20260503024539 5 0.0 0.0 0.00 0.00 0.00 68 1018.6
20260503024026 5 0.0 0.0 0.00 0.00 0.00 68 1018.6
20260503023525 5 0.0 0.0 0.00 0.00 0.00 68 1018.6
20260503023035 5 0.0 0.0 0.00 0.00 0.00 68 1018.5
20260503022525 5 0.0 0.0 0.00 0.00 0.00 68 1018.5
20260503022025 5 0.0 0.0 0.00 0.00 0.00 68 1018.4
20260503021538 5 0.0 0.0 0.00 0.00 0.00 68 1018.4
20260503021027 5 0.0 0.0 0.00 0.00 0.00 67 1018.3
20260503020526 6 0.0 0.0 0.00 0.00 0.00 64 1018.3
20260503020035 6 0.0 0.0 0.00 0.00 0.00 65 1018.4
20260503015527 6 0.0 0.0 0.00 0.00 0.00 65 1018.3
20260503015029 6 0.0 0.0 0.00 0.00 0.00 65 1018.2
20260503014606 6 0.0 0.0 0.00 0.00 0.00 64 1018.1
20260503014026 6 0.0 0.0 0.00 0.00 0.00 63 1018.1
20260503013526 7 0.0 0.0 0.00 0.00 0.00 59 1018.1
20260503013040 7 0.0 0.0 0.00 0.00 0.00 58 1018.1
20260503012526 8 0.0 0.0 0.00 0.00 0.00 56 1018.1
20260503012025 8 0.0 0.0 0.00 0.00 0.00 56 1018.0
20260503011540 8 0.0 0.0 0.00 0.00 0.00 54 1017.9
20260503011025 8 0.0 0.0 0.00 0.00 0.00 54 1017.9
20260503010525 8 0.0 0.0 0.00 0.00 0.00 53 1017.8
20260503010047 9 0.0 0.0 0.00 0.00 0.00 54 1017.8
20260503005526 9 0.0 0.0 0.00 0.00 0.00 50 1017.8
20260503005027 10 0.0 0.0 0.00 0.00 0.00 48 1017.8
20260503004539 10 0.0 0.0 0.00 0.00 0.00 47 1017.8
20260503004026 10 0.0 0.0 0.00 0.00 0.00 46 1017.8
20260503003530 10 0.0 0.0 0.00 0.00 0.00 44 1017.8
20260503003040 10 0.0 0.0 0.00 0.00 0.00 43 1017.8
20260503002526 11 0.0 0.0 0.00 0.00 0.00 42 1017.7
20260503002026 11 0.0 0.0 0.00 0.00 0.00 40 1017.7
20260503001539 11 0.0 0.0 0.00 0.00 0.00 39 1017.6
20260503001027 11 0.0 0.0 0.00 0.00 0.00 40 1017.7
20260503000528 11 0.0 0.0 0.00 0.00 0.00 40 1017.6
20260503000035 12 0.0 0.0 0.00 0.00 0.00 40 1017.6
20260502235525 12 0.0 0.0 0.00 0.00 0.00 39 1017.5
20260502235025 12 0.0 0.0 0.00 0.00 0.00 40 1017.6
20260502234540 12 0.0 0.0 0.00 0.00 0.00 39 1017.4
20260502234027 12 0.0 0.0 0.00 0.00 0.00 40 1017.5
20260502233525 12 0.0 0.0 0.00 0.00 0.00 42 1017.5
20260502233035 12 0.0 0.0 0.00 0.00 0.00 40 1017.5
20260502232527 11 0.0 0.0 0.00 0.00 0.00 39 1017.5
20260502232027 11 0.0 0.0 0.00 0.00 0.00 41 1017.5
20260502231537 11 0.0 0.0 0.00 0.00 0.00 39 1017.5
20260502231028 11 0.0 0.0 0.00 0.00 0.00 41 1017.6
20260502230528 11 0.0 0.0 0.00 0.00 0.00 39 1017.6
20260502230042 11 0.0 0.0 0.00 0.00 0.00 42 1017.7
20260502225527 11 0.0 0.0 0.00 0.00 0.00 39 1017.6
20260502225027 12 0.0 0.0 0.00 0.00 0.00 39 1017.7
20260502224538 12 0.0 0.0 0.00 0.00 0.00 38 1017.7
20260502224028 12 0.0 0.0 0.00 0.00 0.00 40 1017.7
20260502223528 12 0.0 0.0 0.00 0.00 0.00 44 1017.7
20260502223039 12 0.0 0.0 0.00 0.00 0.00 40 1017.7
20260502222528 12 0.0 0.0 0.00 0.00 0.00 38 1017.8
20260502222028 12 0.0 0.0 0.00 0.00 0.00 41 1017.8
20260502221536 12 0.0 0.0 0.00 0.00 0.00 39 1017.8
20260502221027 12 0.0 0.0 0.00 0.00 0.00 40 1017.8
20260502220529 12 0.0 0.0 0.00 0.00 0.00 37 1017.7
20260502220043 13 0.0 0.0 0.00 0.00 0.00 41 1017.7
20260502215527 12 0.0 0.0 0.00 0.00 0.00 44 1017.7
20260502215026 12 0.0 0.0 0.00 0.00 0.00 38 1017.7
20260502214540 12 0.0 0.0 0.00 0.00 0.00 40 1017.7
20260502214031 12 0.0 0.0 0.00 0.00 0.00 39 1017.6
20260502213528 12 0.0 0.0 0.00 0.00 0.00 37 1017.7
20260502213035 13 0.0 0.0 0.00 0.00 0.00 41 1017.6
20260502212527 13 0.0 0.0 0.00 0.00 0.00 41 1017.7
20260502212027 13 0.0 0.0 0.00 0.00 0.00 38 1017.6
20260502211542 13 0.0 0.0 0.00 0.00 0.00 42 1017.6
20260502211028 13 0.0 0.0 0.00 0.00 0.00 41 1017.7
20260502210529 13 0.0 0.0 0.00 0.00 0.00 39 1017.6
20260502210041 13 0.0 0.0 0.00 0.00 0.00 41 1017.6
20260502205528 13 0.0 0.0 0.00 0.00 0.00 40 1017.7
20260502205027 12 0.0 0.0 0.00 0.00 0.00 43 1017.6
20260502204537 12 0.0 0.0 0.00 0.00 0.00 42 1017.8
20260502204028 12 0.0 0.0 0.00 0.00 0.00 42 1017.6
20260502203527 12 0.0 0.0 0.00 0.00 0.00 40 1017.7
20260502203035 12 0.0 0.0 0.00 0.00 0.00 42 1017.7
20260502202528 12 0.0 0.0 0.00 0.00 0.00 49 1017.7
20260502202028 12 0.0 0.0 0.00 0.00 0.00 44 1017.8
20260502201534 12 0.0 0.0 0.00 0.00 0.00 41 1018.0
20260502201029 12 0.0 0.0 0.00 0.00 0.00 46 1018.1